{"data":{"norad_id":44537,"epoch":"2026-06-03T03:53:35.420064Z","epoch_age_seconds":9508375,"freshness":"OLD","line1":"1 44537U 19060D   26154.16221551  .04414569  25793-5  83050-3 0  9993","line2":"2 44537  97.5247 325.4962 0012525 265.6201  94.3663 16.31889338375036","mean_motion":16.31889338,"eccentricity":0.0012525,"inclination_deg":97.5247,"raan_deg":325.4962,"arg_perigee_deg":265.6201,"mean_anomaly_deg":94.3663,"bstar":0.0008305,"rev_number":37503,"period_min":88.241277546725,"perigee_km":179.24387819974,"apogee_km":195.69071696518,"semimajor_km":6565.6042975825,"source":"CELESTRAK","updated_at":"2026-06-03T09:00:28.759248Z"}}